| time (UTC) | temp F | wind direction | speed MPH | gust MPH | rain 1hr in | rain 24hr in | rain mn in | humidity % | barometer mb |
| 20260902201602 | 78 | 0.0 | 0.0 | 0.00 | 0.00 | 0.00 | 48 | 1025.1 | |
| 20260902192602 | 80 | 0.0 | 0.0 | 0.00 | 0.00 | 0.00 | 47 | 1024.3 | |
| 20260902192102 | 80 | 0.0 | 0.0 | 0.00 | 0.00 | 0.00 | 47 | 1024.2 | |
| 20260902184102 | 81 | 0.0 | 0.0 | 0.00 | 0.00 | 0.00 | 46 | 1023.6 | |
| 20260902180602 | 82 | 0.0 | 0.0 | 0.00 | 0.00 | 0.00 | 44 | 1023.1 | |
| 20260902173102 | 83 | 0.0 | 0.0 | 0.00 | 0.00 | 0.00 | 40 | 1022.8 | |
| 20260902171602 | 85 | 0.0 | 0.0 | 0.00 | 0.00 | 0.00 | 37 | 1022.6 | |
| 20260902171102 | 85 | 0.0 | 0.0 | 0.00 | 0.00 | 0.00 | 35 | 1022.6 | |
| 20260902162102 | 88 | 0.0 | 0.0 | 0.00 | 0.00 | 0.00 | 28 | 1022.4 | |
| 20260902155102 | 88 | 0.0 | 0.0 | 0.00 | 0.00 | 0.00 | 29 | 1022.5 | |
| 20260902153102 | 88 | 0.0 | 0.0 | 0.00 | 0.00 | 0.00 | 27 | 1022.4 | |
| 20260902151602 | 87 | 0.0 | 0.0 | 0.00 | 0.00 | 0.00 | 27 | 1022.4 | |
| 20260902150602 | 87 | 0.0 | 0.0 | 0.00 | 0.00 | 0.00 | 27 | 1022.5 | |
| 20260902145102 | 86 | 0.0 | 0.0 | 0.00 | 0.00 | 0.00 | 27 | 1022.7 | |
| 20260902140602 | 84 | 0.0 | 0.0 | 0.00 | 0.00 | 0.00 | 30 | 1023.1 | |
| 20260902133102 | 84 | 0.0 | 0.0 | 0.00 | 0.00 | 0.00 | 32 | 1023.2 | |
| 20260902114602 | 80 | 0.0 | 0.0 | 0.00 | 0.00 | 0.00 | 39 | 1023.9 | |
| 20260902112602 | 79 | 0.0 | 0.0 | 0.00 | 0.00 | 0.00 | 42 | 1024.0 | |
| 20260902111602 | 79 | 0.0 | 0.0 | 0.00 | 0.00 | 0.00 | 44 | 1024.1 | |
| 20260902105602 | 78 | 0.0 | 0.0 | 0.00 | 0.00 | 0.00 | 47 | 1024.2 | |
| 20260902105102 | 78 | 0.0 | 0.0 | 0.00 | 0.00 | 0.00 | 46 | 1024.3 | |
| 20260902103602 | 77 | 0.0 | 0.0 | 0.00 | 0.00 | 0.00 | 48 | 1024.4 | |
| 20260902095101 | 74 | 0.0 | 0.0 | 0.00 | 0.00 | 0.00 | 52 | 1025.1 | |
| 20260902083101 | 69 | 0.0 | 0.0 | 0.00 | 0.00 | 0.00 | 58 | 1025.2 | |
| 20260902071602 | 67 | 0.0 | 0.0 | 0.00 | 0.00 | 0.00 | 63 | 1025.3 | |
| 20260902070602 | 67 | 0.0 | 0.0 | 0.00 | 0.00 | 0.00 | 63 | 1025.3 | |
| 20260902065102 | 66 | 0.0 | 0.0 | 0.00 | 0.00 | 0.00 | 64 | 1025.4 | |
| 20260902062602 | 66 | 0.0 | 0.0 | 0.00 | 0.00 | 0.00 | 65 | 1025.1 | |
| 20260902062102 | 65 | 0.0 | 0.0 | 0.00 | 0.00 | 0.00 | 65 | 1025.1 | |
| 20260902053603 | 66 | 0.0 | 0.0 | 0.00 | 0.00 | 0.00 | 65 | 1024.6 | |
| 20260902052101 | 66 | 0.0 | 0.0 | 0.00 | 0.00 | 0.00 | 65 | 1024.5 | |
| 20260902051102 | 66 | 0.0 | 0.0 | 0.00 | 0.00 | 0.00 | 66 | 1024.3 | |
| 20260902042602 | 67 | 0.0 | 0.0 | 0.00 | 0.00 | 0.00 | 65 | 1024.4 | |
| 20260902040603 | 67 | 0.0 | 0.0 | 0.00 | 0.00 | 0.00 | 64 | 1024.3 | |
| 20260902034102 | 67 | 0.0 | 0.0 | 0.00 | 0.00 | 0.00 | 64 | 1024.4 | |
| 20260902033602 | 67 | 0.0 | 0.0 | 0.00 | 0.00 | 0.00 | 64 | 1024.5 | |
| 20260902030602 | 67 | 0.0 | 0.0 | 0.00 | 0.00 | 0.00 | 65 | 1024.4 | |
| 20260902014602 | 68 | 0.0 | 0.0 | 0.00 | 0.00 | 0.00 | 64 | 1024.5 | |
| 20260902014102 | 68 | 0.0 | 0.0 | 0.00 | 0.00 | 0.00 | 64 | 1024.5 | |
| 20260902010602 | 69 | 0.0 | 0.0 | 0.00 | 0.00 | 0.00 | 63 | 1024.5 | |
| 20260902004602 | 69 | 0.0 | 0.0 | 0.00 | 0.00 | 0.00 | 64 | 1024.5 | |
| 20260902004102 | 69 | 0.0 | 0.0 | 0.00 | 0.00 | 0.00 | 64 | 1024.5 | |
| 20260902003602 | 69 | 0.0 | 0.0 | 0.00 | 0.00 | 0.00 | 63 | 1024.5 | |
| 20260902002602 | 70 | 0.0 | 0.0 | 0.00 | 0.00 | 0.00 | 63 | 1024.4 | |
| 20260902001602 | 69 | 0.0 | 0.0 | 0.00 | 0.00 | 0.00 | 63 | 1024.4 | |
| 20260901235101 | 70 | 0.0 | 0.0 | 0.00 | 0.00 | 0.00 | 62 | 1024.2 | |
| 20260901231603 | 70 | 0.0 | 0.0 | 0.00 | 0.00 | 0.00 | 62 | 1024.2 | |
| 20260901230603 | 71 | 0.0 | 0.0 | 0.00 | 0.00 | 0.00 | 62 | 1024.1 | |
| 20260901222602 | 71 | 0.0 | 0.0 | 0.00 | 0.00 | 0.00 | 61 | 1024.0 | |
| 20260901220603 | 71 | 0.0 | 0.0 | 0.00 | 0.00 | 0.00 | 61 | 1023.9 | |
| 20260901215102 | 72 | 0.0 | 0.0 | 0.00 | 0.00 | 0.00 | 59 | 1023.8 | |
| 20260901212103 | 73 | 0.0 | 0.0 | 0.00 | 0.00 | 0.00 | 59 | 1023.6 | |
| 20260901211603 | 73 | 0.0 | 0.0 | 0.00 | 0.00 | 0.00 | 59 | 1023.6 | |
| 20260901205602 | 73 | 0.0 | 0.0 | 0.00 | 0.00 | 0.00 | 59 | 1023.4 |